TimeCDT,TemperatureF,Dew PointF,Humidity,Sea Level PressureIn,VisibilityMPH,Wind Direction,Wind SpeedMPH,Gust SpeedMPH,PrecipitationIn,Events,Conditions,WindDirDegrees,DateUTC
12:15 AM,71.2,68.0,89,30.05,10.0,East,5.8,-,N/A,,Mostly Cloudy,80,2013-05-25 05:15:00
12:35 AM,71.6,66.6,84,30.05,10.0,East,5.8,-,N/A,,Mostly Cloudy,80,2013-05-25 05:35:00
12:55 AM,71.8,66.4,83,30.06,10.0,ENE,3.5,-,N/A,,Mostly Cloudy,70,2013-05-25 05:55:00
1:15 AM,72.0,66.2,82,30.06,10.0,East,4.6,-,N/A,,Mostly Cloudy,80,2013-05-25 06:15:00
1:35 AM,71.6,66.7,85,30.04,10.0,East,3.5,-,N/A,,Scattered Clouds,100,2013-05-25 06:35:00
1:55 AM,71.1,66.9,87,30.03,10.0,East,3.5,-,N/A,,Clear,90,2013-05-25 06:55:00
2:15 AM,70.9,67.1,88,30.02,10.0,Calm,Calm,-,N/A,,Clear,0,2013-05-25 07:15:00
2:35 AM,70.7,67.5,89,30.02,10.0,ENE,3.5,-,N/A,,Clear,70,2013-05-25 07:35:00
2:55 AM,70.7,67.6,90,30.02,10.0,Calm,Calm,-,N/A,,Clear,0,2013-05-25 07:55:00
3:15 AM,70.7,67.6,90,30.02,10.0,East,3.5,-,N/A,,Scattered Clouds,80,2013-05-25 08:15:00
3:35 AM,70.5,67.6,91,30.02,10.0,Calm,Calm,-,N/A,,Clear,0,2013-05-25 08:35:00
3:55 AM,70.0,67.5,92,30.02,10.0,Calm,Calm,-,N/A,,Clear,0,2013-05-25 08:55:00
4:15 AM,69.8,67.5,92,30.02,7.0,Calm,Calm,-,N/A,,Clear,0,2013-05-25 09:15:00
4:35 AM,69.4,67.3,93,30.00,7.0,Calm,Calm,-,N/A,,Clear,0,2013-05-25 09:35:00
4:55 AM,69.3,67.1,93,30.00,7.0,NNW,3.5,-,N/A,,Clear,340,2013-05-25 09:55:00
5:15 AM,69.1,67.1,93,30.00,7.0,Calm,Calm,-,N/A,,Clear,0,2013-05-25 10:15:00
5:35 AM,68.9,66.7,93,30.00,5.0,Calm,Calm,-,N/A,,Clear,0,2013-05-25 10:35:00
5:55 AM,68.4,66.4,93,30.01,5.0,Calm,Calm,-,N/A,,Clear,0,2013-05-25 10:55:00
6:15 AM,68.4,66.4,93,30.00,5.0,East,4.6,-,N/A,,Clear,90,2013-05-25 11:15:00
6:35 AM,68.9,66.7,93,29.99,5.0,Calm,Calm,-,N/A,,Clear,0,2013-05-25 11:35:00
6:55 AM,68.9,66.7,93,29.99,4.0,Calm,Calm,-,N/A,,Clear,0,2013-05-25 11:55:00
7:15 AM,68.2,66.2,93,30.00,2.5,Calm,Calm,-,N/A,,Clear,0,2013-05-25 12:15:00
7:35 AM,68.9,67.1,94,30.00,3.0,Calm,Calm,-,N/A,,Clear,0,2013-05-25 12:35:00
7:55 AM,70.7,68.9,94,30.01,5.0,Calm,Calm,-,N/A,,Clear,0,2013-05-25 12:55:00
8:15 AM,72.0,70.0,93,30.02,7.0,Calm,Calm,-,N/A,,Clear,0,2013-05-25 13:15:00
8:35 AM,73.4,70.9,92,30.03,7.0,SE,3.5,-,N/A,,Clear,140,2013-05-25 13:35:00
8:55 AM,74.8,70.9,87,30.03,10.0,SE,3.5,-,N/A,,Clear,140,2013-05-25 13:55:00
9:15 AM,76.1,67.6,75,30.04,10.0,Calm,Calm,-,N/A,,Clear,0,2013-05-25 14:15:00
9:35 AM,78.1,67.5,70,30.04,10.0,SE,3.5,-,N/A,,Clear,140,2013-05-25 14:35:00
9:55 AM,79.3,68.0,68,30.04,10.0,SSE,5.8,-,N/A,,Clear,150,2013-05-25 14:55:00
10:15 AM,79.7,68.5,69,30.04,10.0,SE,5.8,-,N/A,,Scattered Clouds,140,2013-05-25 15:15:00
10:35 AM,80.4,68.4,67,30.03,10.0,SSE,6.9,-,N/A,,Scattered Clouds,150,2013-05-25 15:35:00
10:55 AM,80.8,66.9,63,30.03,10.0,SE,10.4,-,N/A,,Scattered Clouds,130,2013-05-25 15:55:00
11:15 AM,82.4,68.0,62,30.03,10.0,SSE,9.2,-,N/A,,Scattered Clouds,150,2013-05-25 16:15:00
11:35 AM,83.1,67.5,59,30.03,10.0,SE,11.5,16.1,N/A,,Scattered Clouds,140,2013-05-25 16:35:00
11:55 AM,83.5,67.3,58,30.03,10.0,SE,11.5,17.3,N/A,,Scattered Clouds,130,2013-05-25 16:55:00
12:15 PM,83.8,67.6,58,30.03,10.0,ESE,10.4,-,N/A,,Mostly Cloudy,110,2013-05-25 17:15:00
12:35 PM,83.3,67.8,59,30.03,10.0,SE,11.5,16.1,N/A,,Mostly Cloudy,130,2013-05-25 17:35:00
12:55 PM,83.8,68.5,60,30.03,10.0,SE,9.2,18.4,N/A,,Mostly Cloudy,140,2013-05-25 17:55:00
1:15 PM,85.3,68.9,58,30.02,10.0,ESE,11.5,17.3,N/A,,Mostly Cloudy,120,2013-05-25 18:15:00
1:35 PM,85.6,68.7,57,30.01,10.0,ESE,10.4,-,N/A,,Mostly Cloudy,120,2013-05-25 18:35:00
1:55 PM,86.0,68.4,55,30.00,10.0,SE,10.4,18.4,N/A,,Mostly Cloudy,140,2013-05-25 18:55:00
2:15 PM,86.5,68.2,54,29.99,10.0,SE,17.3,20.7,N/A,,Mostly Cloudy,130,2013-05-25 19:15:00
2:35 PM,87.4,67.6,52,29.99,10.0,SE,11.5,17.3,N/A,,Mostly Cloudy,130,2013-05-25 19:35:00
2:55 PM,87.6,68.2,52,29.98,10.0,SE,15.0,20.7,N/A,,Mostly Cloudy,140,2013-05-25 19:55:00
3:15 PM,88.3,66.9,49,29.97,10.0,SE,11.5,19.6,N/A,,Scattered Clouds,140,2013-05-25 20:15:00
3:35 PM,88.5,65.7,47,29.97,10.0,SE,15.0,21.9,N/A,,Mostly Cloudy,130,2013-05-25 20:35:00
3:55 PM,88.7,64.8,45,29.97,10.0,SE,13.8,21.9,N/A,,Scattered Clouds,130,2013-05-25 20:55:00
4:15 PM,89.1,65.7,46,29.97,10.0,SSE,12.7,19.6,N/A,,Mostly Cloudy,150,2013-05-25 21:15:00
4:35 PM,89.8,64.9,44,29.96,10.0,SE,15.0,18.4,N/A,,Scattered Clouds,130,2013-05-25 21:35:00
4:55 PM,89.6,65.5,45,29.95,10.0,SE,9.2,-,N/A,,Scattered Clouds,130,2013-05-25 21:55:00
5:15 PM,89.6,65.3,44,29.95,10.0,SE,9.2,17.3,N/A,,Scattered Clouds,130,2013-05-25 22:15:00
5:35 PM,89.6,64.8,44,29.94,10.0,SE,13.8,20.7,N/A,,Mostly Cloudy,130,2013-05-25 22:35:00
5:55 PM,90.0,65.5,44,29.93,10.0,SE,11.5,18.4,N/A,,Scattered Clouds,130,2013-05-25 22:55:00
6:15 PM,88.7,65.1,45,29.93,10.0,SE,10.4,18.4,N/A,,Mostly Cloudy,130,2013-05-25 23:15:00
6:35 PM,89.4,66.0,46,29.93,10.0,ESE,12.7,19.6,N/A,,Scattered Clouds,120,2013-05-25 23:35:00
6:55 PM,87.8,67.1,50,29.93,10.0,East,15.0,19.6,N/A,,Scattered Clouds,100,2013-05-25 23:55:00
7:15 PM,86.9,67.6,53,29.93,10.0,ESE,18.4,26.5,N/A,,Mostly Cloudy,110,2013-05-26 00:15:00
7:35 PM,84.4,66.7,55,29.93,10.0,ESE,13.8,21.9,N/A,,Mostly Cloudy,120,2013-05-26 00:35:00
7:55 PM,84.0,67.8,58,29.92,10.0,ESE,10.4,19.6,N/A,,Scattered Clouds,110,2013-05-26 00:55:00
8:15 PM,83.3,68.2,60,29.93,10.0,ESE,13.8,18.4,N/A,,Scattered Clouds,110,2013-05-26 01:15:00
8:35 PM,82.9,68.4,61,29.94,10.0,ESE,13.8,21.9,N/A,,Clear,110,2013-05-26 01:35:00
8:55 PM,82.6,68.2,62,29.95,10.0,ESE,11.5,18.4,N/A,,Clear,120,2013-05-26 01:55:00
9:15 PM,82.0,68.5,63,29.97,10.0,ESE,12.7,17.3,N/A,,Clear,120,2013-05-26 02:15:00
9:35 PM,81.5,68.7,65,29.97,10.0,ESE,10.4,-,N/A,,Scattered Clouds,120,2013-05-26 02:35:00
9:55 PM,81.5,69.3,66,29.99,10.0,SE,10.4,16.1,N/A,,Overcast,130,2013-05-26 02:55:00
10:15 PM,80.8,69.4,68,29.99,10.0,ESE,13.8,19.6,N/A,,Overcast,120,2013-05-26 03:15:00
10:35 PM,80.6,69.8,70,29.99,10.0,ESE,12.7,17.3,N/A,,Overcast,120,2013-05-26 03:35:00
10:55 PM,80.1,69.8,71,30.00,10.0,ESE,10.4,21.9,N/A,,Mostly Cloudy,120,2013-05-26 03:55:00
11:15 PM,79.3,70.0,73,30.01,10.0,ESE,12.7,18.4,N/A,,Mostly Cloudy,110,2013-05-26 04:15:00
11:35 PM,78.8,70.0,74,30.02,10.0,ESE,11.5,18.4,N/A,,Scattered Clouds,120,2013-05-26 04:35:00
11:55 PM,78.4,70.0,75,30.02,10.0,ESE,11.5,18.4,N/A,,Scattered Clouds,120,2013-05-26 04:55:00